BCS251 EHAM-EDDP

Flight info

Callsign BCS251
Flight time 0h 51m
Altitude 35000
Route ARNEM L620 HMM DCT NORTA/N0402F230 DCT ADMOS T959 KOJEC
Aircraft B738/M-SDE2E3FGHIRWXY/LB1

Departure

Time 2026-05-07 18:54
Airport Amsterdam Airport Schiphol (EHAM)

Arrival

Time 2026-05-07 19:45
Airport Leipzig/Halle Airport (EDDP)
Time Latitude Longitude Altitude Speed Heading
2026-05-07 18:16 52.29477 4.76116 -2 ft 0 kts 148°
2026-05-07 18:37 52.29478 4.76115 -2 ft 2 kts 148°
2026-05-07 18:37 52.29499 4.76093 -2 ft 4 kts 146°
2026-05-07 18:38 52.29521 4.76067 -2 ft 4 kts 141°
2026-05-07 18:38 52.29540 4.76037 -2 ft 4 kts 123°
2026-05-07 18:38 52.29542 4.76034 -2 ft 1 kts 120°
2026-05-07 18:42 52.29539 4.76035 -2 ft 1 kts 147°
2026-05-07 18:42 52.29535 4.76028 -2 ft 1 kts 221°
2026-05-07 18:42 52.29536 4.76014 -2 ft 2 kts 272°
2026-05-07 18:42 52.29535 4.75992 -2 ft 1 kts 262°
2026-05-07 18:43 52.29534 4.75985 -2 ft 1 kts 256°
2026-05-07 18:43 52.29532 4.75978 -2 ft 1 kts 250°
2026-05-07 18:43 52.29529 4.75964 -2 ft 3 kts 248°
2026-05-07 18:43 52.29518 4.75917 -2 ft 6 kts 251°
2026-05-07 18:44 52.29505 4.75850 -2 ft 6 kts 253°
2026-05-07 18:44 52.29492 4.75785 -2 ft 6 kts 248°
2026-05-07 18:44 52.29473 4.75725 -2 ft 6 kts 240°
2026-05-07 18:44 52.29453 4.75667 -2 ft 6 kts 239°
2026-05-07 18:45 52.29438 4.75606 -2 ft 6 kts 264°
2026-05-07 18:45 52.29439 4.75593 -2 ft 0 kts 278°
2026-05-07 18:45 52.29441 4.75581 -2 ft 9 kts 288°
2026-05-07 18:46 52.29537 4.75448 -4 ft 23 kts 328°
2026-05-07 18:46 52.29660 4.75324 -2 ft 13 kts 329°
2026-05-07 18:46 52.29713 4.75285 -2 ft 8 kts 348°
2026-05-07 18:46 52.29767 4.75274 -2 ft 5 kts 354°
2026-05-07 18:47 52.29775 4.75273 -2 ft 0 kts 354°
2026-05-07 18:49 52.29776 4.75273 -2 ft 1 kts 354°
2026-05-07 18:49 52.29799 4.75261 -2 ft 6 kts 334°
2026-05-07 18:49 52.29840 4.75197 -2 ft 10 kts 310°
2026-05-07 18:49 52.29892 4.75099 -2 ft 13 kts 311°
2026-05-07 18:50 52.29959 4.74976 -2 ft 16 kts 311°
2026-05-07 18:50 52.30037 4.74833 -2 ft 18 kts 311°
2026-05-07 18:50 52.30120 4.74680 6 ft 18 kts 311°
2026-05-07 18:50 52.30189 4.74552 9 ft 11 kts 309°
2026-05-07 18:51 52.30237 4.74457 9 ft 11 kts 309°
2026-05-07 18:51 52.30287 4.74365 8 ft 11 kts 314°
2026-05-07 18:51 52.30342 4.74265 -2 ft 10 kts 311°
2026-05-07 18:51 52.30371 4.74168 -2 ft 10 kts 272°
2026-05-07 18:52 52.30345 4.74070 -2 ft 10 kts 228°
2026-05-07 18:52 52.30294 4.74002 -2 ft 9 kts 217°
2026-05-07 18:52 52.30242 4.73939 -2 ft 9 kts 217°
2026-05-07 18:52 52.30197 4.73874 -2 ft 9 kts 238°
2026-05-07 18:53 52.30200 4.73780 -3 ft 10 kts 305°
2026-05-07 18:53 52.30288 4.73744 -5 ft 20 kts
2026-05-07 18:53 52.30645 4.73777 -4 ft 90 kts
2026-05-07 18:53 52.31509 4.73858 14 ft 155 kts
2026-05-07 18:54 52.32688 4.73948 473 ft 183 kts
2026-05-07 18:54 52.33953 4.74108 1515 ft 174 kts 17°
2026-05-07 18:54 52.35055 4.74874 2397 ft 179 kts 27°
2026-05-07 18:54 52.36277 4.75782 2694 ft 205 kts 26°
2026-05-07 18:55 52.37648 4.76824 2892 ft 227 kts 31°
2026-05-07 18:55 52.38868 4.78553 3192 ft 244 kts 47°
2026-05-07 18:55 52.40064 4.80625 3622 ft 259 kts 47°
2026-05-07 18:55 52.41329 4.82795 4440 ft 262 kts 49°
2026-05-07 18:56 52.42233 4.85343 5160 ft 265 kts 75°
2026-05-07 18:56 52.42437 4.88358 5938 ft 268 kts 91°
2026-05-07 18:56 52.42435 4.91454 6687 ft 272 kts 91°
2026-05-07 18:56 52.42427 4.94557 7416 ft 275 kts 91°
2026-05-07 18:57 52.42202 4.97681 8089 ft 279 kts 112°
2026-05-07 18:57 52.41156 5.00320 8801 ft 279 kts 137°
2026-05-07 18:57 52.39607 5.02272 9520 ft 283 kts 146°
2026-05-07 18:57 52.37984 5.04094 10169 ft 288 kts 146°
2026-05-07 18:58 52.36268 5.06029 10483 ft 308 kts 146°
2026-05-07 18:58 52.34481 5.08100 10653 ft 329 kts 141°
2026-05-07 18:58 52.32999 5.11071 10968 ft 345 kts 117°
2026-05-07 18:58 52.32057 5.14728 11601 ft 350 kts 111°
2026-05-07 18:59 52.31194 5.18457 12300 ft 353 kts 111°
2026-05-07 18:59 52.30328 5.22239 12979 ft 358 kts 111°
2026-05-07 18:59 52.29729 5.24831 13474 ft 360 kts 111°
2026-05-07 18:59 52.28831 5.28676 14172 ft 363 kts 111°
2026-05-07 19:00 52.27931 5.32488 14823 ft 367 kts 112°
2026-05-07 19:00 52.26999 5.36396 15501 ft 370 kts 112°
2026-05-07 19:00 52.26072 5.40270 16180 ft 373 kts 112°
2026-05-07 19:00 52.25119 5.44243 16864 ft 377 kts 112°
2026-05-07 19:01 52.24156 5.48244 17534 ft 380 kts 112°
2026-05-07 19:01 52.23185 5.52269 18186 ft 384 kts 112°
2026-05-07 19:01 52.22199 5.56346 18780 ft 387 kts 112°
2026-05-07 19:01 52.21395 5.60549 19329 ft 392 kts 101°
2026-05-07 19:02 52.21041 5.64978 19901 ft 395 kts 96°
2026-05-07 19:02 52.20772 5.69398 20458 ft 398 kts 96°
2026-05-07 19:02 52.20508 5.73947 20995 ft 402 kts 96°
2026-05-07 19:02 52.20238 5.78513 21519 ft 405 kts 96°
2026-05-07 19:03 52.19959 5.83094 22044 ft 409 kts 96°
2026-05-07 19:03 52.19666 5.87733 22561 ft 412 kts 96°
2026-05-07 19:03 52.19366 5.92349 23047 ft 416 kts 97°
2026-05-07 19:03 52.19050 5.97127 23558 ft 419 kts 97°
2026-05-07 19:04 52.18736 6.01802 23973 ft 423 kts 97°
2026-05-07 19:04 52.18410 6.06605 24411 ft 425 kts 97°
2026-05-07 19:04 52.18082 6.11409 24830 ft 427 kts 97°
2026-05-07 19:04 52.17750 6.16240 25245 ft 430 kts 97°
2026-05-07 19:05 52.17413 6.21097 25638 ft 433 kts 97°
2026-05-07 19:05 52.17074 6.25980 26024 ft 435 kts 97°
2026-05-07 19:05 52.16729 6.30899 26415 ft 438 kts 97°
2026-05-07 19:05 52.16381 6.35844 26799 ft 440 kts 97°
2026-05-07 19:06 52.16031 6.40792 27174 ft 443 kts 97°
2026-05-07 19:06 52.15313 6.50841 27901 ft 448 kts 97°
2026-05-07 19:06 52.14952 6.55839 28239 ft 450 kts 97°
2026-05-07 19:07 52.14586 6.60892 28580 ft 452 kts 97°
2026-05-07 19:07 52.14214 6.65984 28924 ft 455 kts 97°
2026-05-07 19:07 52.13835 6.71143 29251 ft 457 kts 98°
2026-05-07 19:07 52.13455 6.76286 29577 ft 459 kts 98°
2026-05-07 19:08 52.13070 6.81462 29884 ft 461 kts 98°
2026-05-07 19:08 52.12684 6.86625 30191 ft 463 kts 98°
2026-05-07 19:08 52.12297 6.91774 30533 ft 462 kts 98°
2026-05-07 19:08 52.11901 6.97005 30968 ft 459 kts 98°
2026-05-07 19:09 52.11514 7.02087 31376 ft 457 kts 98°
2026-05-07 19:09 52.11118 7.07266 31727 ft 457 kts 98°
2026-05-07 19:09 52.10726 7.12352 32040 ft 457 kts 98°
2026-05-07 19:09 52.10328 7.17483 32399 ft 455 kts 98°
2026-05-07 19:10 52.09930 7.22594 32786 ft 454 kts 98°
2026-05-07 19:10 52.09530 7.27696 33160 ft 452 kts 98°
2026-05-07 19:10 52.09130 7.32770 33484 ft 452 kts 98°
2026-05-07 19:10 52.08729 7.37825 33814 ft 451 kts 98°
2026-05-07 19:11 52.08329 7.42852 34146 ft 450 kts 98°
2026-05-07 19:11 52.07924 7.47902 34393 ft 450 kts 98°
2026-05-07 19:11 52.07516 7.52964 34571 ft 451 kts 98°
2026-05-07 19:11 52.07106 7.58016 34766 ft 452 kts 98°
2026-05-07 19:12 52.06692 7.63094 35000 ft 452 kts 98°
2026-05-07 19:12 52.06278 7.68157 35101 ft 455 kts 98°
2026-05-07 19:12 52.05436 7.78343 35103 ft 457 kts 98°
2026-05-07 19:13 52.04585 7.88542 35093 ft 451 kts 98°
2026-05-07 19:13 52.03736 7.98612 35109 ft 449 kts 98°
2026-05-07 19:14 52.02878 8.08665 35108 ft 449 kts 98°
2026-05-07 19:14 52.02013 8.18710 35112 ft 449 kts 98°
2026-05-07 19:15 52.01143 8.28702 35113 ft 449 kts 98°
2026-05-07 19:15 52.00260 8.38742 35113 ft 450 kts 98°
2026-05-07 19:16 51.99367 8.48801 35107 ft 451 kts 98°
2026-05-07 19:16 51.98465 8.58870 35111 ft 451 kts 98°
2026-05-07 19:17 51.97556 8.68908 35108 ft 452 kts 98°
2026-05-07 19:17 51.96630 8.79030 34908 ft 456 kts 98°
2026-05-07 19:18 51.96161 8.84111 34453 ft 456 kts 98°
2026-05-07 19:18 51.95690 8.89207 34030 ft 452 kts 98°
2026-05-07 19:18 51.95226 8.94210 33528 ft 447 kts 98°
2026-05-07 19:18 51.94760 8.99195 33036 ft 446 kts 98°
2026-05-07 19:19 51.94294 9.04151 32559 ft 446 kts 98°
2026-05-07 19:19 51.93830 9.09061 32099 ft 446 kts 98°
2026-05-07 19:19 51.93358 9.14039 31636 ft 447 kts 98°
2026-05-07 19:19 51.92882 9.19036 31189 ft 452 kts 98°
2026-05-07 19:20 51.92396 9.24113 30748 ft 456 kts 98°
2026-05-07 19:20 51.91909 9.29182 30301 ft 456 kts 99°
2026-05-07 19:20 51.91419 9.34261 29818 ft 455 kts 99°
2026-05-07 19:20 51.90927 9.39334 29286 ft 455 kts 99°
2026-05-07 19:21 51.90435 9.44376 28780 ft 454 kts 99°
2026-05-07 19:21 51.89940 9.49437 28288 ft 454 kts 99°
2026-05-07 19:21 51.89441 9.54511 27807 ft 458 kts 99°
2026-05-07 19:21 51.88941 9.59572 27331 ft 463 kts 99°
2026-05-07 19:22 51.88430 9.64724 26866 ft 465 kts 99°
2026-05-07 19:22 51.87914 9.69906 26400 ft 465 kts 99°
2026-05-07 19:22 51.87396 9.75083 25928 ft 465 kts 99°
2026-05-07 19:22 51.86878 9.80232 25489 ft 465 kts 99°
2026-05-07 19:23 51.86285 9.85371 25153 ft 462 kts 102°
2026-05-07 19:23 51.85612 9.90394 25115 ft 450 kts 103°
2026-05-07 19:23 51.84929 9.95237 25094 ft 432 kts 103°
2026-05-07 19:23 51.84266 9.99877 25087 ft 414 kts 103°
2026-05-07 19:24 51.83630 10.04359 24950 ft 402 kts 103°
2026-05-07 19:24 51.83025 10.08655 24800 ft 391 kts 103°
2026-05-07 19:24 51.82432 10.12900 24452 ft 387 kts 103°
2026-05-07 19:24 51.81842 10.17133 24073 ft 384 kts 103°
2026-05-07 19:25 51.81260 10.21315 23694 ft 381 kts 103°
2026-05-07 19:25 51.80679 10.25487 23252 ft 378 kts 103°
2026-05-07 19:25 51.80102 10.29612 22820 ft 376 kts 103°
2026-05-07 19:25 51.79526 10.33727 22383 ft 374 kts 103°
2026-05-07 19:26 51.78951 10.37815 21950 ft 371 kts 103°
2026-05-07 19:26 51.78379 10.41877 21526 ft 369 kts 103°
2026-05-07 19:26 51.77813 10.45888 20923 ft 372 kts 103°
2026-05-07 19:26 51.77227 10.50026 20321 ft 375 kts 103°
2026-05-07 19:27 51.76645 10.54125 19718 ft 373 kts 103°
2026-05-07 19:27 51.76074 10.58131 19128 ft 368 kts 103°
2026-05-07 19:27 51.75503 10.62135 18563 ft 363 kts 103°
2026-05-07 19:27 51.74939 10.66072 18259 ft 357 kts 103°
2026-05-07 19:28 51.74387 10.69925 18122 ft 346 kts 103°
2026-05-07 19:28 51.73849 10.73669 18101 ft 338 kts 103°
2026-05-07 19:28 51.73313 10.77388 18124 ft 341 kts 103°
2026-05-07 19:28 51.72770 10.81143 18116 ft 347 kts 103°
2026-05-07 19:29 51.72158 10.84900 18109 ft 347 kts 109°
2026-05-07 19:29 51.71336 10.88502 18098 ft 345 kts 111°
2026-05-07 19:29 51.70438 10.92125 18098 ft 344 kts 112°
2026-05-07 19:29 51.69553 10.95649 18103 ft 343 kts 112°
2026-05-07 19:30 51.68667 10.99200 18103 ft 342 kts 112°
2026-05-07 19:30 51.67786 11.02768 18107 ft 342 kts 111°
2026-05-07 19:30 51.66914 11.06323 18102 ft 342 kts 111°
2026-05-07 19:30 51.66039 11.09901 18104 ft 343 kts 111°
2026-05-07 19:31 51.65168 11.13468 18097 ft 341 kts 111°
2026-05-07 19:31 51.64307 11.16994 17681 ft 336 kts 111°
2026-05-07 19:31 51.63453 11.20480 17068 ft 335 kts 111°
2026-05-07 19:31 51.62595 11.23972 16381 ft 335 kts 111°
2026-05-07 19:32 51.61611 11.27336 15804 ft 332 kts 121°
2026-05-07 19:32 51.60307 11.30382 15271 ft 328 kts 125°
2026-05-07 19:32 51.59143 11.33483 14692 ft 324 kts 109°
2026-05-07 19:32 51.58668 11.36978 14351 ft 313 kts 96°
2026-05-07 19:33 51.58422 11.40393 14066 ft 304 kts 95°
2026-05-07 19:33 51.58208 11.43785 13664 ft 305 kts 94°
2026-05-07 19:33 51.58001 11.47129 13377 ft 302 kts 94°
2026-05-07 19:33 51.57797 11.50484 13061 ft 299 kts 94°
2026-05-07 19:34 51.57597 11.53767 12585 ft 295 kts 94°
2026-05-07 19:34 51.57396 11.57057 12007 ft 295 kts 94°
2026-05-07 19:34 51.57195 11.60336 11510 ft 293 kts 94°
2026-05-07 19:34 51.56995 11.63570 11037 ft 290 kts 94°
2026-05-07 19:35 51.56796 11.66785 10568 ft 287 kts 94°
2026-05-07 19:35 51.56596 11.69977 10087 ft 286 kts 94°
2026-05-07 19:35 51.56399 11.73110 9571 ft 284 kts 94°
2026-05-07 19:35 51.56200 11.76263 9044 ft 282 kts 94°
2026-05-07 19:36 51.56005 11.79391 8523 ft 280 kts 94°
2026-05-07 19:36 51.55812 11.82486 8101 ft 275 kts 94°
2026-05-07 19:36 51.55412 11.85470 7610 ft 274 kts 114°
2026-05-07 19:36 51.54250 11.87863 7091 ft 276 kts 141°
2026-05-07 19:37 51.52518 11.89129 6648 ft 279 kts 169°
2026-05-07 19:37 51.50596 11.88951 6387 ft 277 kts 197°
2026-05-07 19:37 51.48953 11.87398 6132 ft 275 kts 225°
2026-05-07 19:37 51.47949 11.84819 6057 ft 276 kts 250°
2026-05-07 19:38 51.47350 11.81892 6001 ft 277 kts 253°
2026-05-07 19:38 51.46802 11.78944 6024 ft 274 kts 254°
2026-05-07 19:38 51.46158 11.76101 6003 ft 276 kts 239°
2026-05-07 19:38 51.44837 11.73892 6008 ft 270 kts 211°
2026-05-07 19:39 51.43140 11.72995 5994 ft 253 kts 181°
2026-05-07 19:39 51.41485 11.73525 6003 ft 240 kts 150°
2026-05-07 19:39 51.40283 11.75284 6025 ft 235 kts 121°
2026-05-07 19:39 51.39751 11.76788 5929 ft 233 kts 116°
2026-05-07 19:40 51.39347 11.80145 5503 ft 232 kts 84°
2026-05-07 19:40 51.39481 11.82730 5180 ft 234 kts 85°
2026-05-07 19:40 51.39597 11.85323 4858 ft 232 kts 85°
2026-05-07 19:40 51.39707 11.87880 4517 ft 229 kts 85°
2026-05-07 19:41 51.39815 11.90396 4244 ft 222 kts 85°
2026-05-07 19:41 51.39921 11.92834 3917 ft 213 kts 85°
2026-05-07 19:41 51.40020 11.95118 3619 ft 200 kts 85°
2026-05-07 19:41 51.40116 11.97306 3361 ft 196 kts 85°
2026-05-07 19:42 51.40214 11.99500 3104 ft 200 kts 85°
2026-05-07 19:42 51.40312 12.01718 2838 ft 203 kts 85°
2026-05-07 19:42 51.40412 12.03978 2534 ft 198 kts 84°
2026-05-07 19:42 51.40505 12.06066 2274 ft 183 kts 84°
2026-05-07 19:43 51.40593 12.08040 2027 ft 169 kts 84°
2026-05-07 19:43 51.40676 12.09864 1802 ft 165 kts 84°
2026-05-07 19:43 51.40760 12.11700 1577 ft 162 kts 84°
2026-05-07 19:43 51.40838 12.13428 1367 ft 149 kts 84°
2026-05-07 19:44 51.40917 12.15082 1115 ft 150 kts 83°
2026-05-07 19:44 51.40973 12.16194 951 ft 150 kts 85°
2026-05-07 19:44 51.41032 12.17823 775 ft 144 kts 86°
2026-05-07 19:44 51.41136 12.19925 533 ft 142 kts 84°
2026-05-07 19:45 51.41213 12.21460 457 ft 132 kts 86°
2026-05-07 19:45 51.41271 12.22762 461 ft 101 kts 85°
2026-05-07 19:45 51.41303 12.23421 463 ft 74 kts 85°
2026-05-07 19:45 51.41336 12.24150 470 ft 31 kts 87°
2026-05-07 19:46 51.41339 12.24377 469 ft 12 kts 104°
2026-05-07 19:46 51.41274 12.24445 465 ft 12 kts 181°
2026-05-07 19:46 51.41237 12.24434 468 ft 0 kts 193°
2026-05-07 19:48 51.41228 12.24430 468 ft 3 kts 193°
2026-05-07 19:48 51.41201 12.24420 465 ft 4 kts 193°
2026-05-07 19:48 51.41171 12.24409 467 ft 5 kts 193°
2026-05-07 19:49 51.41134 12.24400 466 ft 6 kts 185°
2026-05-07 19:49 51.41092 12.24362 463 ft 8 kts 233°
2026-05-07 19:49 51.41080 12.24282 465 ft 7 kts 265°
2026-05-07 19:49 51.41076 12.24201 465 ft 7 kts 265°
2026-05-07 19:50 51.41072 12.24123 463 ft 7 kts 265°
2026-05-07 19:50 51.41069 12.24047 465 ft 7 kts 265°
2026-05-07 19:50 51.41065 12.23971 465 ft 7 kts 266°
2026-05-07 19:50 51.41062 12.23897 466 ft 7 kts 266°
2026-05-07 19:51 51.41061 12.23880 466 ft 0 kts 266°
2026-05-07 19:51 51.41060 12.23844 467 ft 6 kts 266°
2026-05-07 19:51 51.41053 12.23780 468 ft 6 kts 246°
2026-05-07 19:52 51.41019 12.23747 469 ft 6 kts 185°
2026-05-07 19:52 51.40968 12.23753 468 ft 9 kts 175°
2026-05-07 19:52 51.40898 12.23762 466 ft 11 kts 176°
2026-05-07 19:52 51.40819 12.23772 464 ft 11 kts 175°
2026-05-07 19:53 51.40738 12.23782 462 ft 12 kts 175°
2026-05-07 19:53 51.40692 12.23823 461 ft 8 kts 99°
2026-05-07 19:53 51.40701 12.23885 459 ft 4 kts 81°
2026-05-07 19:53 51.40702 12.23899 461 ft 0 kts 83°